sat.trackr.live / text

‹ back to catalog

STARLINK-32134

NORAD 60300 · 2024-132Y

PAYLOAD ACTIVE UNKNOWN

§ Identity

Operator
Country
US
Launch date
2024-07-28
Launch site
AFETR
Launch vehicle
Mass (kg)
RCS (m²)

Purposes: comms

External: N2YO · Heavens-Above · Gunter

§ Orbital elements

Epoch: 2026-05-24T23:55:22.977408Z

Period
94.11 min
Inclination
53.1606°
Eccentricity
0.0001116
Mean motion
15.30184146 rev/d
Perigee alt
474.5 km
Apogee alt
476.0 km
Semi-major
6,853.4 km
B*
4.1122e-5
RAAN
57.9680°
Arg perigee
90.9960°
Mean anomaly
269.1168°
Rev number
10,324

§ Raw data

STARLINK-321341 60300U 24132Y   26144.99679372  .00000858  00000+0  41122-4 0  99942 60300  53.1606  57.9680 0001116  90.9960 269.1168 15.30184146103245

JSON: /api/v1/satellites/60300 · /tle

For live sub-satellite position, see the globe view (requires WebGL).

§ Visibility from observer

Set your observer location to see the next 7 days of passes ≥ 10°. The values pass through the URL so the page stays shareable.

No JS? Fill the form by hand. The geolocation button needs JavaScript.